| time (UTC) | temp F | wind direction | speed MPH | gust MPH | rain 1hr in | rain 24hr in | rain mn in | humidity % | barometer mb |
| 20260509202604 | 60 | 0.0 | 0.0 | 0.00 | 1.28 | 1.28 | 92 | 1016.9 | |
| 20260509201602 | 60 | 0.0 | 2.0 | 0.00 | 1.28 | 1.28 | 92 | 1016.8 | |
| 20260509200559 | 60 | 113 | 0.0 | 2.0 | 0.00 | 1.28 | 1.28 | 92 | 1016.7 |
| 20260509195556 | 60 | 132 | 1.0 | 2.0 | 0.00 | 1.28 | 1.28 | 91 | 1016.5 |
| 20260509194554 | 60 | 120 | 1.0 | 4.0 | 0.00 | 1.28 | 1.28 | 90 | 1016.3 |
| 20260509193551 | 60 | 103 | 2.0 | 4.0 | 0.00 | 1.28 | 1.28 | 89 | 1016.3 |
| 20260509192549 | 60 | 135 | 0.0 | 2.0 | 0.00 | 1.28 | 1.28 | 88 | 1016.1 |
| 20260509191546 | 60 | 0.0 | 2.0 | 0.00 | 1.28 | 1.28 | 88 | 1016.0 | |
| 20260509190543 | 60 | 0.0 | 0.0 | 0.00 | 1.28 | 1.28 | 89 | 1016.0 | |
| 20260509185541 | 60 | 0.0 | 0.0 | 0.00 | 1.28 | 1.28 | 89 | 1015.8 | |
| 20260509184538 | 60 | 0.0 | 2.0 | 0.00 | 1.28 | 1.28 | 89 | 1015.6 | |
| 20260509183535 | 60 | 173 | 1.0 | 4.0 | 0.00 | 1.28 | 1.28 | 90 | 1015.6 |
| 20260509182533 | 60 | 191 | 2.0 | 4.0 | 0.00 | 1.28 | 1.28 | 90 | 1015.6 |
| 20260509181530 | 60 | 196 | 2.0 | 6.0 | 0.00 | 1.28 | 1.28 | 90 | 1015.4 |
| 20260509180528 | 60 | 147 | 3.0 | 6.0 | 0.00 | 1.28 | 1.28 | 90 | 1015.1 |
| 20260509175525 | 61 | 152 | 2.0 | 4.0 | 0.00 | 1.28 | 1.28 | 89 | 1015.0 |
| 20260509174522 | 61 | 182 | 1.0 | 4.0 | 0.00 | 1.28 | 1.28 | 89 | 1015.1 |
| 20260509173540 | 61 | 183 | 2.0 | 4.0 | 0.00 | 1.28 | 1.28 | 89 | 1014.9 |
| 20260509172517 | 61 | 203 | 1.0 | 4.0 | 0.00 | 1.28 | 1.28 | 88 | 1014.9 |
| 20260509171634 | 61 | 161 | 2.0 | 6.0 | 0.00 | 1.28 | 1.28 | 87 | 1014.9 |
| 20260509170612 | 62 | 179 | 2.0 | 4.0 | 0.00 | 1.28 | 1.28 | 86 | 1014.7 |
| 20260509165609 | 62 | 127 | 2.0 | 4.0 | 0.00 | 1.28 | 1.28 | 85 | 1014.4 |
| 20260509164627 | 63 | 193 | 2.0 | 6.0 | 0.00 | 1.28 | 1.28 | 85 | 1014.5 |
| 20260509163624 | 64 | 212 | 3.0 | 7.0 | 0.00 | 1.28 | 1.28 | 81 | 1014.4 |
| 20260509162602 | 65 | 197 | 2.0 | 6.0 | 0.00 | 1.28 | 1.28 | 80 | 1013.9 |
| 20260509161559 | 67 | 181 | 2.0 | 6.0 | 0.00 | 1.28 | 1.28 | 78 | 1013.6 |
| 20260509160556 | 70 | 163 | 3.0 | 6.0 | 0.00 | 1.28 | 1.28 | 74 | 1013.6 |
| 20260509155553 | 70 | 198 | 2.0 | 7.0 | 0.00 | 1.28 | 1.28 | 73 | 1013.6 |
| 20260509154551 | 71 | 194 | 1.0 | 4.0 | 0.00 | 1.28 | 1.28 | 71 | 1013.4 |
| 20260509153548 | 70 | 169 | 3.0 | 7.0 | 0.00 | 1.28 | 1.28 | 74 | 1013.5 |
| 20260509152546 | 70 | 207 | 2.0 | 4.0 | 0.00 | 1.28 | 1.28 | 74 | 1013.4 |
| 20260509151543 | 70 | 198 | 2.0 | 4.0 | 0.00 | 1.28 | 1.28 | 74 | 1013.2 |
| 20260509150541 | 69 | 190 | 2.0 | 6.0 | 0.00 | 1.28 | 1.28 | 75 | 1013.2 |
| 20260509145538 | 68 | 206 | 4.0 | 8.0 | 0.00 | 1.28 | 1.28 | 74 | 1013.0 |
| 20260509144535 | 70 | 188 | 2.0 | 7.0 | 0.00 | 1.28 | 1.28 | 74 | 1012.7 |
| 20260509143553 | 69 | 175 | 2.0 | 4.0 | 0.00 | 1.28 | 1.28 | 76 | 1012.6 |
| 20260509142530 | 67 | 184 | 2.0 | 6.0 | 0.00 | 1.28 | 1.28 | 78 | 1012.6 |
| 20260509141527 | 68 | 169 | 2.0 | 6.0 | 0.00 | 1.28 | 1.28 | 76 | 1012.5 |
| 20260509140525 | 69 | 204 | 2.0 | 6.0 | 0.00 | 1.28 | 1.28 | 73 | 1012.4 |
| 20260509135522 | 69 | 229 | 1.0 | 4.0 | 0.00 | 1.28 | 1.28 | 75 | 1012.4 |
| 20260509134520 | 67 | 179 | 2.0 | 4.0 | 0.00 | 1.28 | 1.28 | 78 | 1012.4 |
| 20260509133517 | 64 | 263 | 2.0 | 4.0 | 0.00 | 1.28 | 1.28 | 83 | 1012.4 |
| 20260509132615 | 60 | 241 | 2.0 | 4.0 | 0.01 | 1.28 | 1.28 | 88 | 1012.5 |
| 20260509131632 | 59 | 207 | 1.0 | 4.0 | 0.01 | 1.28 | 1.28 | 93 | 1012.4 |
| 20260509130610 | 58 | 47 | 3.0 | 7.0 | 0.02 | 1.28 | 1.28 | 94 | 1012.1 |
| 20260509125647 | 58 | 245 | 3.0 | 9.0 | 0.04 | 1.28 | 1.28 | 95 | 1012.4 |
| 20260509124604 | 58 | 117 | 2.0 | 6.0 | 0.05 | 1.28 | 1.28 | 97 | 1012.8 |
| 20260509123602 | 56 | 245 | 1.0 | 4.0 | 0.05 | 1.28 | 1.28 | 98 | 1013.4 |
| 20260509122559 | 57 | 169 | 2.0 | 4.0 | 0.05 | 1.29 | 1.26 | 98 | 1013.5 |
| 20260509121556 | 57 | 75 | 0.0 | 2.0 | 0.06 | 1.29 | 1.26 | 98 | 1014.5 |
| 20260509120554 | 57 | 0.0 | 0.0 | 0.07 | 1.28 | 1.25 | 98 | 1014.7 | |
| 20260509115551 | 57 | 178 | 1.0 | 4.0 | 0.07 | 1.26 | 1.24 | 98 | 1014.9 |
| 20260509114548 | 57 | 207 | 1.0 | 4.0 | 0.08 | 1.25 | 1.23 | 98 | 1014.2 |
| 20260509113606 | 57 | 236 | 0.0 | 2.0 | 0.11 | 1.25 | 1.23 | 98 | 1013.8 |
| 20260509112543 | 56 | 0.0 | 2.0 | 0.13 | 1.24 | 1.22 | 98 | 1013.8 | |
| 20260509111540 | 56 | 338 | 0.0 | 2.0 | 0.15 | 1.23 | 1.20 | 98 | 1013.5 |
| 20260509110538 | 55 | 13 | 2.0 | 4.0 | 0.17 | 1.20 | 1.18 | 98 | 1013.8 |
| 20260509105535 | 55 | 96 | 2.0 | 4.0 | 0.25 | 1.19 | 1.17 | 98 | 1013.8 |
| 20260509104533 | 56 | 5 | 4.0 | 8.0 | 0.27 | 1.17 | 1.15 | 98 | 1013.7 |
| 20260509103530 | 56 | 6 | 4.0 | 8.0 | 0.27 | 1.15 | 1.12 | 98 | 1013.7 |
| 20260509102528 | 57 | 300 | 3.0 | 6.0 | 0.26 | 1.11 | 1.09 | 98 | 1014.6 |
| 20260509101525 | 57 | 203 | 3.0 | 7.0 | 0.28 | 1.07 | 1.05 | 98 | 1014.9 |
| 20260509100522 | 56 | 199 | 1.0 | 2.0 | 0.30 | 1.04 | 1.02 | 97 | 1014.3 |
| 20260509095520 | 57 | 295 | 1.0 | 2.0 | 0.28 | 0.94 | 0.92 | 97 | 1013.4 |
| 20260509094517 | 57 | 165 | 3.0 | 7.0 | 0.27 | 0.90 | 0.87 | 97 | 1013.3 |
| 20260509093614 | 57 | 203 | 0.0 | 2.0 | 0.26 | 0.87 | 0.85 | 97 | 1012.5 |
| 20260509092612 | 57 | 135 | 0.0 | 2.0 | 0.24 | 0.85 | 0.83 | 96 | 1012.2 |
| 20260509091610 | 57 | 113 | 0.0 | 2.0 | 0.18 | 0.79 | 0.77 | 96 | 1012.3 |
| 20260509090607 | 57 | 181 | 2.0 | 7.0 | 0.13 | 0.74 | 0.72 | 96 | 1012.3 |
| 20260509085604 | 57 | 184 | 4.0 | 8.0 | 0.05 | 0.66 | 0.64 | 96 | 1012.1 |
| 20260509084602 | 56 | 155 | 2.0 | 4.0 | 0.01 | 0.63 | 0.60 | 95 | 1011.7 |
| 20260509083559 | 57 | 187 | 1.0 | 4.0 | 0.02 | 0.61 | 0.59 | 95 | 1011.5 |
| 20260509082557 | 56 | 266 | 1.0 | 4.0 | 0.06 | 0.61 | 0.59 | 96 | 1011.2 |
| 20260509081554 | 57 | 21 | 2.0 | 4.0 | 0.17 | 0.61 | 0.59 | 96 | 1011.8 |
| 20260509080551 | 57 | 325 | 5.0 | 8.0 | 0.19 | 0.61 | 0.59 | 96 | 1012.2 |
| 20260509075548 | 56 | 23 | 2.0 | 4.0 | 0.19 | 0.61 | 0.59 | 97 | 1012.0 |
| 20260509074546 | 56 | 355 | 2.0 | 7.0 | 0.26 | 0.61 | 0.59 | 96 | 1011.5 |
| 20260509073543 | 56 | 23 | 2.0 | 4.0 | 0.44 | 0.59 | 0.57 | 96 | 1012.0 |
| 20260509072541 | 56 | 8 | 4.0 | 8.0 | 0.43 | 0.56 | 0.53 | 96 | 1011.7 |
| 20260509071538 | 56 | 244 | 1.0 | 4.0 | 0.32 | 0.45 | 0.43 | 96 | 1013.3 |
| 20260509070535 | 56 | 25 | 1.0 | 6.0 | 0.31 | 0.43 | 0.40 | 96 | 1012.3 |
| 20260509065613 | 55 | 335 | 2.0 | 6.0 | 0.35 | 0.43 | 0.40 | 95 | 1011.9 |
| 20260509064530 | 56 | 340 | 1.0 | 6.0 | 0.33 | 0.35 | 0.33 | 93 | 1012.7 |
| 20260509063527 | 57 | 191 | 2.0 | 4.0 | 0.13 | 0.15 | 0.13 | 89 | 1013.8 |
| 20260509062525 | 57 | 158 | 0.0 | 2.0 | 0.11 | 0.13 | 0.11 | 91 | 1012.4 |
| 20260509061522 | 56 | 220 | 1.0 | 4.0 | 0.11 | 0.13 | 0.11 | 92 | 1011.8 |
| 20260509060519 | 57 | 6 | 3.0 | 6.0 | 0.09 | 0.12 | 0.09 | 90 | 1011.4 |
| 20260509055517 | 59 | 166 | 2.0 | 4.0 | 0.05 | 0.07 | 0.05 | 83 | 1013.1 |
| 20260509054634 | 59 | 135 | 0.0 | 2.0 | 0.00 | 0.02 | 0.00 | 80 | 1011.8 |
| 20260509053612 | 58 | 45 | 0.0 | 2.0 | 0.00 | 0.02 | 0.00 | 83 | 1010.9 |
| 20260509052609 | 58 | 7 | 0.0 | 4.0 | 0.00 | 0.02 | 0.00 | 83 | 1010.8 |
| 20260509051607 | 58 | 0.0 | 2.0 | 0.00 | 0.02 | 0.00 | 81 | 1011.3 | |
| 20260509050604 | 58 | 90 | 0.0 | 2.0 | 0.00 | 0.02 | 0.00 | 80 | 1011.9 |
| 20260509045602 | 58 | 90 | 0.0 | 2.0 | 0.00 | 0.02 | 0.00 | 80 | 1012.0 |
| 20260509044619 | 58 | 0.0 | 0.0 | 0.00 | 0.02 | 0.00 | 81 | 1012.1 | |
| 20260509043557 | 58 | 0.0 | 2.0 | 0.00 | 0.02 | 0.00 | 83 | 1012.0 | |
| 20260509042554 | 57 | 90 | 0.0 | 2.0 | 0.00 | 0.02 | 0.00 | 84 | 1011.7 |
| 20260509041551 | 57 | 0.0 | 0.0 | 0.00 | 0.02 | 0.00 | 85 | 1011.9 | |
| 20260509040549 | 57 | 90 | 0.0 | 2.0 | 0.00 | 0.02 | 0.00 | 84 | 1011.9 |
| 20260509035546 | 57 | 68 | 0.0 | 2.0 | 0.00 | 0.02 | 0.00 | 84 | 1011.9 |
| 20260509034543 | 57 | 0.0 | 0.0 | 0.00 | 0.02 | 0.00 | 84 | 1012.0 | |
| 20260509033540 | 57 | 0.0 | 0.0 | 0.00 | 0.02 | 0.00 | 84 | 1011.9 | |
| 20260509032538 | 57 | 0.0 | 0.0 | 0.00 | 0.02 | 0.00 | 85 | 1012.0 | |
| 20260509031556 | 57 | 0.0 | 0.0 | 0.00 | 0.02 | 0.00 | 87 | 1012.2 | |
| 20260509030533 | 56 | 0.0 | 0.0 | 0.00 | 0.02 | 0.00 | 88 | 1012.1 | |
| 20260509025530 | 57 | 0.0 | 0.0 | 0.00 | 0.02 | 0.00 | 88 | 1012.2 | |
| 20260509024527 | 57 | 0.0 | 0.0 | 0.00 | 0.02 | 0.00 | 87 | 1012.4 | |
| 20260509023525 | 57 | 0.0 | 0.0 | 0.00 | 0.02 | 0.00 | 87 | 1012.6 | |
| 20260509022522 | 57 | 0.0 | 0.0 | 0.00 | 0.02 | 0.00 | 87 | 1012.9 | |
| 20260509021519 | 57 | 0.0 | 0.0 | 0.00 | 0.02 | 0.00 | 87 | 1012.9 | |
| 20260509020517 | 57 | 0.0 | 0.0 | 0.00 | 0.02 | 0.00 | 88 | 1012.9 | |
| 20260509015634 | 57 | 0.0 | 0.0 | 0.00 | 0.02 | 0.00 | 87 | 1013.1 | |
| 20260509014612 | 57 | 0.0 | 0.0 | 0.00 | 0.02 | 0.00 | 87 | 1013.1 | |
| 20260509013609 | 57 | 0.0 | 0.0 | 0.00 | 0.02 | 0.00 | 88 | 1013.4 | |
| 20260509012607 | 57 | 0.0 | 0.0 | 0.00 | 0.02 | 0.00 | 89 | 1013.6 | |
| 20260509011604 | 57 | 0.0 | 2.0 | 0.00 | 0.02 | 0.00 | 90 | 1013.6 | |
| 20260509010601 | 57 | 0.0 | 0.0 | 0.00 | 0.02 | 0.00 | 90 | 1013.9 | |
| 20260509005559 | 57 | 0.0 | 0.0 | 0.00 | 0.02 | 0.00 | 90 | 1014.3 | |
| 20260509004556 | 57 | 0.0 | 0.0 | 0.00 | 0.02 | 0.00 | 91 | 1014.5 | |
| 20260509003613 | 57 | 0.0 | 0.0 | 0.00 | 0.02 | 0.00 | 91 | 1014.5 | |
| 20260509002551 | 57 | 0.0 | 0.0 | 0.00 | 0.02 | 0.00 | 91 | 1014.5 | |
| 20260509001548 | 57 | 0.0 | 0.0 | 0.00 | 0.02 | 0.00 | 90 | 1014.6 | |
| 20260509000606 | 58 | 0.0 | 0.0 | 0.00 | 0.02 | 0.00 | 89 | 1014.7 | |
| 20260508235543 | 58 | 0.0 | 0.0 | 0.00 | 0.02 | 0.00 | 89 | 1014.6 | |
| 20260508234541 | 58 | 0.0 | 0.0 | 0.00 | 0.02 | 0.00 | 89 | 1014.7 | |
| 20260508233538 | 57 | 0.0 | 0.0 | 0.00 | 0.02 | 0.00 | 90 | 1014.9 | |
| 20260508232535 | 57 | 0.0 | 0.0 | 0.00 | 0.02 | 0.00 | 90 | 1015.0 | |
| 20260508231532 | 57 | 0.0 | 0.0 | 0.00 | 0.02 | 0.00 | 90 | 1015.1 | |
| 20260508230530 | 57 | 0.0 | 0.0 | 0.00 | 0.02 | 0.00 | 91 | 1015.2 | |
| 20260508225527 | 57 | 0.0 | 0.0 | 0.00 | 0.02 | 0.00 | 91 | 1015.4 | |
| 20260508224524 | 57 | 0.0 | 2.0 | 0.00 | 0.02 | 0.00 | 91 | 1015.4 | |
| 20260508223522 | 57 | 45 | 0.0 | 2.0 | 0.00 | 0.02 | 0.00 | 91 | 1015.5 |
| 20260508222519 | 57 | 0 | 0.0 | 2.0 | 0.00 | 0.02 | 0.00 | 91 | 1015.6 |
| 20260508221517 | 58 | 0.0 | 2.0 | 0.00 | 0.02 | 0.00 | 90 | 1015.6 | |
| 20260508220655 | 58 | 0.0 | 0.0 | 0.00 | 0.02 | 0.00 | 90 | 1015.4 | |
| 20260508215612 | 58 | 0.0 | 0.0 | 0.00 | 0.02 | 0.02 | 90 | 1015.4 | |
| 20260508214630 | 58 | 4 | 1.0 | 2.0 | 0.00 | 0.02 | 0.02 | 89 | 1015.4 |
| 20260508213607 | 58 | 113 | 0.0 | 4.0 | 0.00 | 0.02 | 0.02 | 90 | 1015.3 |
| 20260508212604 | 58 | 0.0 | 0.0 | 0.00 | 0.02 | 0.02 | 90 | 1015.5 | |
| 20260508211602 | 58 | 0.0 | 0.0 | 0.00 | 0.02 | 0.02 | 89 | 1015.6 | |
| 20260508210559 | 58 | 0.0 | 0.0 | 0.00 | 0.02 | 0.02 | 89 | 1015.7 | |
| 20260508205556 | 58 | 0.0 | 0.0 | 0.00 | 0.02 | 0.02 | 89 | 1015.6 | |
| 20260508204614 | 58 | 0.0 | 0.0 | 0.00 | 0.02 | 0.02 | 88 | 1015.6 | |
| 20260508203551 | 59 | 23 | 0.0 | 2.0 | 0.00 | 0.02 | 0.02 | 88 | 1015.6 |